Temp
7 7 7 7 8 8 9 9 9 10 10 11 11 11 11 12 12 11 11 11 12 11 11 11 11 11 11 11 11 11 11 11 11 11 11 11 11 11 11 11 11 11 11 11 11 10 10 10 10
7 7 7 7 7 8 9 9 9 10 10 11 10 10 10 11 11 11 11 11 11 11 11 11 11 11 11 11 11 11 11 11 11 11 11 11 11 11 11 11 11 10 10 10 10 10 10 10 10
6 6 6 7 7 8 9 9 9 9 9 10 10 11 10 10 11 11 11 11 11 11 10 11 11 11 10 10 10 10 10 10 10 10 10 10 11 11 10 10 10 10 10 10 10 10 10 10 10
6 6 6 6 7 8 9 8 9 9 9 9 10 10 10 10 10 10 11 11 10 10 10 10 11 10 10 10 10 10 10 10 10 10 10 10 10 10 10 10 10 10 10 10 10 10 9 9 9
5 6 5 6 8 9 8 8 8 9 9 9 9 9 10 10 10 10 10 10 10 10 10 10 10 10 10 10 10 10 10 10 10 9 10 10 10 10 10 10 10 10 9 9 9 9 9 9 9
4 5 5 6 8 9 8 8 8 9 9 9 9 9 9 9 9 10 10 10 10 10 10 10 10 10 10 10 10 10 10 10 9 9 9 9 9 9 9 9 9 9 9 9 8 8 8 8 8
4 4 5 6 7 8 8 7 8 8 8 8 8 8 9 9 9 9 10 10 10 10 10 10 10 10 10 10 9 9 10 9 9 9 9 9 9 9 8 8 8 8 8 8 8 7 7 7 7
4 4 4 5 6 8 8 7 7 8 8 8 8 8 8 8 9 9 9 9 10 10 10 10 10 10 10 9 9 9 9 9 9 9 9 9 9 8 8 7 7 7 7 7 7 7 6 6 6
4 3 4 5 5 8 8 7 7 7 7 7 8 7 8 7 8 8 9 9 9 10 9 9 9 10 9 9 9 9 9 9 9 9 9 9 9 8 8 7 7 7 7 7 7 6 6 6 6
3 3 4 6 6 7 8 6 6 6 7 7 7 7 7 7 7 8 8 8 9 9 9 9 9 9 9 9 9 9 9 9 9 9 9 9 8 8 8 7 7 7 7 7 6 6 6 6 6
4 4 4 5 6 6 7 6 6 6 6 7 7 7 7 6 6 7 8 8 9 9 9 9 9 9 9 9 9 9 9 9 9 8 8 8 8 8 8 7 7 7 7 7 6 6 6 6 6
3 4 3 5 5 5 5 6 5 6 5 6 6 7 6 7 6 6 7 8 8 9 9 9 9 9 9 9 9 9 9 9 8 8 8 8 8 8 8 8 7 7 7 7 7 6 6 6 6
2 3 3 4 4 4 4 5 5 5 5 5 5 6 7 7 6 6 6 7 8 8 9 9 9 9 9 9 9 9 9 8 8 8 8 8 8 8 7 7 7 7 7 6 6 6 6 6 6
1 1 2 2 3 3 3 4 4 5 5 5 5 6 7 7 7 7 7 7 8 8 8 8 9 9 9 9 9 8 8 8 8 8 8 7 7 6 6 6 6 6 6 6 6 6 6 6 5
0 1 1 2 2 2 3 4 5 5 5 5 5 6 7 7 7 7 7 7 8 8 8 8 9 8 8 9 8 8 8 8 8 8 7 7 6 6 6 6 6 6 6 6 5 5 5 5 5
-1 -0 0 2 1 2 2 4 4 5 5 5 5 6 7 7 6 7 7 7 7 8 8 8 8 8 8 8 8 8 8 8 8 7 7 6 6 6 6 6 5 5 5 5 5 5 4 5 5
-1 -1 -0 0 2 2 3 4 4 4 5 5 5 6 6 6 6 7 7 7 7 7 8 8 8 8 8 8 8 8 8 8 7 7 7 6 6 5 6 5 5 5 5 4 4 4 4 5 5
-1 -1 -1 -0 1 2 2 2 3 4 5 5 5 6 6 6 6 6 7 7 7 8 8 8 8 8 8 8 7 7 7 7 7 6 6 6 5 5 5 5 4 4 4 4 4 4 4 5 5
-1 -2 -2 -1 -0 0 1 2 2 3 4 5 5 6 6 6 6 6 6 7 7 7 8 8 7 8 8 7 7 7 7 6 6 6 6 5 5 5 4 4 3 4 4 4 4 4 4 5 5
-2 -2 -2 -1 -1 -0 0 1 1 3 4 4 5 6 5 6 6 6 6 7 7 7 7 7 7 7 7 7 7 7 6 6 6 6 5 5 5 4 4 3 3 3 3 4 4 4 4 4 5
-3 -3 -3 -3 -1 -0 -0 1 2 4 4 4 5 5 5 5 6 6 6 7 7 7 7 7 7 7 7 7 7 6 6 6 6 5 5 4 4 3 3 3 3 3 3 3 4 4 4 4 4
-3 -2 -3 -3 -3 -3 -0 0 2 3 4 4 5 5 6 5 5 6 6 6 6 7 7 7 7 7 7 6 6 6 5 5 5 5 4 4 3 3 3 2 2 3 3 3 3 4 4 4 4
-3 -3 -3 -3 -3 -3 -2 -2 0 3 3 5 6 6 5 6 6 6 6 6 6 6 6 6 6 6 6 6 5 5 5 5 4 4 4 3 3 2 2 2 2 2 3 3 3 3 3 3 2
-4 -4 -4 -3 -3 -3 -1 -1 1 3 5 6 6 6 6 6 5 6 6 6 6 6 6 6 6 6 5 5 5 5 5 4 4 4 3 3 2 2 2 2 2 2 2 3 3 2 2 2 1
-5 -5 -4 -4 -4 -3 0 -1 1 3 5 6 7 7 6 6 6 6 6 6 6 6 6 6 6 5 5 5 5 4 4 4 4 3 3 2 2 2 2 1 1 1 2 2 2 2 1 1 0
-4 -4 -4 -5 -4 -2 -0 0 1 4 6 6 6 6 7 6 5 6 6 6 6 6 6 5 5 5 5 4 4 4 4 4 3 3 2 2 2 1 1 1 1 1 1 1 1 1 0 -0 -1
-4 -4 -2 -4 -2 -1 1 2 2 4 7 7 6 8 8 7 6 6 6 6 5 5 5 5 5 4 4 4 4 4 4 3 3 2 2 1 1 1 1 0 0 1 1 1 0 -0 -1 -1 -1
-4 -4 -4 -5 -5 -2 0 1 3 6 7 7 8 8 8 7 6 6 6 5 5 5 5 4 4 4 4 4 4 3 3 3 2 2 2 1 1 0 -0 -0 -0 0 0 -0 -1 -1 -1 -2 -2
-4 -4 -4 -3 -2 -3 -0 2 5 6 7 7 7 8 8 7 6 6 5 4 4 4 4 4 4 4 3 3 3 3 3 2 2 2 1 1 0 -0 -0 -1 -0 -0 -1 -1 -1 -2 -2 -2 -3
-4 -4 -4 -3 -2 -2 -2 1 6 6 7 7 7 7 7 6 6 5 4 4 4 4 4 4 3 3 3 3 3 3 2 2 2 1 1 0 -0 -1 -1 -1 -1 -1 -1 -2 -2 -2 -3 -3 -4
Height
3147 3146 3147 3146 3151 3146 3144 3144 3144 3145 3145 3144 3146 3145 3146 3147 3148 3152 3150 3150 3150 3150 3150 3149 3149 3147 3146 3145 3143 3142 3140 3139 3138 3137 3136 3135 3135 3134 3134 3134 3135 3135 3136 3136 3135 3136 3136 3136 3135
3144 3145 3145 3145 3146 3144 3142 3143 3143 3144 3144 3144 3144 3144 3143 3145 3146 3148 3149 3148 3149 3149 3149 3148 3148 3147 3146 3145 3144 3142 3141 3140 3138 3137 3136 3135 3134 3134 3134 3134 3134 3134 3134 3134 3134 3134 3134 3133 3133
3141 3142 3143 3144 3141 3141 3140 3141 3141 3143 3143 3143 3143 3141 3142 3143 3145 3146 3147 3148 3148 3148 3148 3148 3148 3147 3146 3145 3143 3142 3141 3139 3138 3137 3136 3134 3134 3134 3133 3133 3133 3133 3132 3132 3132 3132 3131 3131 3130
3137 3139 3141 3138 3136 3137 3137 3139 3140 3142 3142 3142 3141 3140 3141 3141 3143 3145 3146 3147 3147 3147 3147 3147 3147 3146 3145 3144 3142 3142 3141 3140 3139 3137 3136 3134 3134 3133 3133 3132 3132 3131 3131 3131 3130 3129 3128 3127 3127
3134 3135 3135 3134 3132 3135 3136 3137 3137 3139 3139 3140 3139 3137 3139 3139 3140 3142 3145 3146 3146 3146 3146 3146 3146 3145 3144 3144 3142 3142 3141 3139 3138 3136 3136 3133 3133 3133 3132 3131 3130 3130 3129 3128 3127 3126 3126 3125 3124
3130 3131 3130 3128 3129 3132 3133 3134 3134 3136 3136 3136 3136 3136 3137 3138 3139 3140 3142 3144 3144 3145 3145 3145 3145 3144 3144 3143 3142 3141 3140 3139 3137 3135 3134 3133 3132 3131 3130 3130 3129 3128 3127 3126 3125 3124 3123 3122 3121
3124 3125 3124 3124 3126 3127 3131 3133 3132 3133 3134 3134 3134 3133 3135 3135 3136 3137 3140 3141 3142 3143 3143 3143 3143 3143 3142 3141 3140 3140 3139 3137 3136 3135 3133 3131 3130 3129 3128 3128 3127 3126 3125 3124 3123 3122 3120 3119 3118
3119 3120 3117 3118 3121 3122 3128 3129 3130 3131 3131 3132 3132 3130 3132 3133 3133 3135 3137 3138 3139 3140 3141 3141 3141 3141 3141 3140 3139 3138 3137 3136 3135 3134 3132 3130 3128 3126 3127 3126 3125 3124 3122 3121 3120 3119 3118 3117 3116
3113 3112 3107 3111 3115 3118 3123 3125 3126 3127 3127 3128 3129 3128 3130 3129 3131 3131 3133 3135 3136 3138 3138 3139 3139 3139 3138 3138 3137 3136 3135 3135 3134 3132 3130 3129 3127 3126 3125 3124 3124 3122 3121 3120 3119 3118 3116 3115 3114
3104 3101 3099 3105 3110 3114 3118 3121 3123 3123 3123 3123 3126 3125 3127 3126 3127 3129 3129 3132 3133 3135 3136 3137 3137 3137 3137 3137 3135 3134 3134 3134 3132 3131 3129 3128 3127 3125 3124 3123 3122 3121 3120 3119 3117 3116 3115 3114 3112
3095 3089 3097 3101 3106 3111 3111 3114 3118 3118 3119 3120 3123 3122 3122 3122 3123 3125 3127 3129 3131 3132 3133 3134 3135 3134 3135 3134 3133 3132 3131 3130 3130 3129 3128 3127 3125 3124 3122 3121 3120 3118 3117 3115 3114 3113 3111 3110 3108
3089 3089 3093 3098 3102 3105 3107 3110 3110 3112 3114 3117 3117 3120 3119 3119 3120 3121 3124 3125 3126 3128 3130 3131 3131 3132 3132 3132 3131 3130 3128 3127 3127 3127 3125 3124 3123 3122 3120 3118 3117 3116 3114 3113 3112 3110 3108 3106 3104
3082 3085 3089 3093 3096 3098 3102 3101 3103 3103 3108 3109 3111 3113 3116 3118 3117 3118 3120 3120 3122 3124 3126 3126 3127 3128 3128 3129 3128 3127 3125 3124 3124 3124 3123 3122 3121 3119 3117 3115 3114 3113 3111 3109 3108 3106 3104 3101 3099
3078 3078 3080 3085 3088 3091 3093 3092 3095 3097 3103 3103 3103 3106 3110 3112 3113 3113 3114 3115 3117 3119 3121 3122 3122 3123 3123 3122 3122 3121 3120 3120 3121 3120 3120 3119 3118 3116 3114 3112 3111 3109 3107 3105 3103 3101 3098 3096 3094
3073 3074 3075 3077 3082 3084 3089 3081 3082 3093 3097 3097 3098 3101 3104 3105 3106 3106 3108 3110 3112 3113 3115 3116 3117 3118 3118 3117 3117 3116 3115 3115 3114 3114 3113 3114 3113 3112 3110 3108 3107 3106 3103 3101 3098 3095 3093 3091 3088
3070 3071 3070 3074 3078 3080 3087 3059 3079 3088 3090 3090 3092 3094 3096 3098 3098 3100 3103 3104 3105 3106 3108 3110 3111 3112 3112 3113 3112 3112 3112 3112 3110 3111 3111 3111 3110 3109 3107 3105 3103 3101 3098 3096 3093 3090 3087 3085 3082
3067 3064 3065 3068 3074 3077 3077 3059 3073 3082 3084 3084 3086 3089 3090 3091 3092 3095 3097 3098 3099 3099 3101 3102 3105 3107 3107 3107 3109 3109 3108 3108 3107 3107 3106 3107 3106 3105 3104 3101 3099 3096 3093 3090 3087 3085 3081 3079 3076
3060 3060 3060 3062 3069 3071 3068 3059 3068 3074 3077 3078 3080 3083 3084 3084 3087 3090 3092 3093 3093 3093 3094 3095 3097 3100 3101 3103 3105 3105 3105 3104 3104 3103 3103 3103 3102 3101 3099 3097 3094 3091 3088 3086 3083 3079 3074 3071 3068
3057 3055 3055 3059 3064 3063 3061 3057 3061 3066 3067 3069 3073 3075 3078 3079 3082 3084 3086 3087 3088 3088 3088 3089 3092 3094 3096 3099 3100 3101 3101 3101 3100 3100 3100 3100 3099 3097 3095 3093 3090 3087 3084 3081 3078 3074 3069 3064 3061
3051 3050 3049 3055 3060 3060 3056 3048 3051 3053 3056 3062 3066 3069 3071 3073 3076 3079 3081 3082 3083 3084 3084 3085 3088 3091 3093 3095 3096 3097 3097 3097 3097 3097 3097 3096 3095 3093 3091 3088 3086 3083 3079 3075 3071 3067 3063 3057 3053
3045 3045 3051 3054 3055 3052 3052 3038 3042 3045 3048 3052 3056 3061 3065 3067 3070 3073 3075 3077 3079 3080 3080 3083 3085 3087 3089 3090 3092 3093 3094 3094 3094 3094 3093 3093 3091 3090 3087 3084 3081 3077 3073 3069 3065 3061 3057 3052 3046
3038 3043 3048 3051 3054 3051 3052 3035 3032 3036 3036 3041 3045 3049 3056 3059 3063 3066 3068 3071 3074 3076 3077 3079 3082 3084 3085 3087 3088 3090 3091 3092 3091 3091 3090 3089 3087 3085 3083 3080 3076 3072 3068 3063 3058 3053 3048 3045 3040
3036 3044 3045 3046 3048 3048 3043 3046 3017 3026 3024 3028 3034 3040 3047 3050 3055 3059 3062 3066 3069 3071 3074 3076 3078 3080 3082 3084 3086 3087 3088 3089 3088 3088 3086 3085 3084 3081 3078 3075 3071 3067 3062 3056 3051 3046 3041 3036 3032
3036 3040 3041 3043 3046 3039 3024 3038 3005 3013 3013 3021 3026 3033 3040 3042 3047 3052 3056 3060 3063 3067 3070 3072 3075 3077 3079 3081 3083 3084 3085 3086 3085 3084 3083 3081 3079 3076 3073 3069 3064 3059 3055 3050 3045 3039 3034 3029 3023
3032 3037 3038 3038 3037 3017 3018 3026 2998 3003 3010 3012 3018 3024 3031 3035 3039 3045 3049 3054 3058 3062 3065 3068 3071 3073 3076 3078 3079 3081 3082 3082 3082 3080 3079 3076 3073 3070 3066 3062 3057 3053 3048 3043 3037 3032 3027 3021 3016
3022 3026 3027 3027 3023 3013 3019 3009 2990 2998 3006 3010 3012 3017 3024 3026 3033 3039 3045 3049 3053 3058 3061 3064 3067 3069 3072 3074 3076 3077 3078 3078 3077 3075 3073 3071 3067 3064 3059 3055 3050 3045 3040 3035 3029 3024 3018 3013 3008
3015 3016 3012 3018 3014 3013 3004 2995 2996 2996 3000 3004 3005 3008 3013 3017 3026 3034 3040 3044 3049 3053 3057 3060 3063 3066 3068 3071 3072 3073 3074 3073 3072 3070 3068 3065 3061 3058 3054 3049 3044 3038 3032 3026 3021 3015 3010 3005 2999
3006 3013 3016 3018 3017 3009 2993 2989 2984 2987 2993 2996 2998 3003 3009 3015 3021 3028 3034 3040 3044 3048 3052 3055 3059 3062 3065 3067 3068 3069 3069 3068 3066 3064 3062 3059 3055 3051 3047 3042 3036 3030 3024 3018 3013 3007 3001 2996 2990
2998 2998 3001 3005 3004 2998 2989 2979 2978 2982 2988 2991 2996 3003 3008 3013 3018 3024 3030 3034 3039 3043 3048 3052 3055 3058 3061 3063 3064 3064 3064 3063 3061 3059 3055 3052 3048 3044 3039 3034 3028 3022 3016 3010 3004 2998 2991 2985 2979
2983 2985 2994 2997 2998 2996 2994 2978 2973 2976 2981 2991 2998 3003 3007 3012 3016 3021 3026 3030 3034 3039 3045 3048 3052 3055 3057 3059 3059 3059 3059 3057 3055 3052 3049 3045 3041 3036 3031 3025 3019 3013 3007 3001 2995 2988 2981 2975 2968
Wind_Speed
14 13 11 9 7 6 8 4 8 5 7 8 7 7 11 10 6 2 1 1 3 4 6 8 11 12 14 14 15 15 16 13 11 11 11 9 7 5 5 5 6 7 7 8 7 7 8 8 10
15 14 12 10 8 9 5 3 6 8 10 10 8 9 4 6 6 3 4 4 3 3 4 7 9 11 13 14 14 14 14 15 14 12 11 11 10 7 6 6 6 7 8 8 8 9 9 10 11
17 16 13 8 12 14 4 3 4 2 4 10 12 14 7 6 8 6 4 4 4 3 3 5 7 9 11 13 14 14 14 14 13 13 13 12 10 8 7 6 6 8 8 10 10 10 11 11 12
18 16 15 16 18 14 11 2 4 10 5 7 13 17 9 8 9 7 6 7 6 5 3 3 5 8 10 12 14 14 13 13 13 13 12 12 12 10 8 8 8 9 10 11 11 11 12 12 12
20 20 19 19 21 14 12 7 6 13 15 12 12 11 9 10 10 8 9 8 8 8 5 4 4 7 9 10 11 13 13 13 13 13 12 12 11 10 9 8 7 9 10 11 11 12 12 11 11
23 23 21 27 27 17 15 4 6 15 15 13 14 14 13 11 10 9 9 9 11 11 8 5 5 7 8 9 9 11 13 13 13 13 12 11 11 9 8 7 7 8 8 8 8 8 8 9 10
26 27 31 30 27 23 15 8 8 15 15 13 11 9 11 11 13 11 9 10 10 12 11 8 6 7 9 9 9 10 12 14 14 12 13 12 10 9 9 8 8 8 8 8 9 9 9 10 10
28 29 34 34 31 28 19 11 7 13 15 14 15 8 8 10 12 11 10 11 11 12 11 8 7 8 9 9 9 10 13 13 13 12 13 12 10 9 9 7 7 8 8 9 10 10 10 11 12
32 34 41 39 35 28 23 14 10 13 18 17 17 15 10 10 11 12 13 11 10 12 12 10 9 10 10 9 10 11 13 12 12 13 13 12 10 9 8 8 8 8 9 9 10 11 12 13 14
36 44 47 40 36 30 24 23 17 15 21 22 18 23 16 13 12 12 16 14 13 12 13 12 11 10 10 10 10 12 13 12 12 13 13 11 10 10 10 9 10 11 12 13 14 15 17 19 20
39 49 44 42 36 31 30 29 23 15 23 26 25 20 18 14 13 17 16 18 18 16 15 13 12 10 11 10 11 12 13 13 13 13 13 12 10 10 10 11 11 13 15 16 17 18 18 19 20
41 44 43 40 37 34 32 29 28 27 23 24 27 23 20 21 18 15 15 19 16 19 19 16 13 12 11 12 13 14 14 14 14 13 13 13 12 12 12 12 13 14 14 16 17 18 19 20 21
39 40 40 40 39 38 30 37 36 33 25 23 25 28 25 27 25 23 21 24 23 22 19 17 15 14 14 15 16 17 16 16 16 15 14 14 13 14 14 14 15 15 16 17 19 21 23 23 23
33 34 37 37 39 40 40 40 40 39 30 29 32 35 33 29 32 32 31 30 29 26 24 21 19 18 18 19 19 19 19 18 18 17 15 14 13 14 15 15 16 17 18 20 23 24 25 25 25
35 36 32 38 38 37 31 45 48 41 37 34 36 33 28 31 31 31 31 35 34 29 25 23 20 20 19 21 22 23 22 21 21 19 16 14 15 17 17 17 18 19 21 23 24 26 27 27 27
25 33 36 33 32 39 32 58 41 40 38 39 37 34 28 32 28 30 27 25 26 26 25 26 24 22 22 23 24 24 22 22 22 19 16 15 16 17 18 19 20 21 23 25 25 27 29 30 31
26 26 27 31 34 29 37 54 42 36 38 42 43 28 27 24 28 26 19 21 25 28 27 28 27 26 26 27 24 22 22 22 21 17 16 17 17 18 19 21 21 23 25 26 28 31 32 33 34
27 31 30 30 26 22 40 48 45 39 37 37 37 27 23 23 24 21 20 23 22 23 25 29 30 28 28 25 20 22 21 21 18 16 17 16 17 19 20 21 22 23 26 28 31 33 35 35 33
33 25 33 31 22 27 31 38 42 43 43 39 32 30 30 25 23 26 26 23 21 21 24 28 28 27 23 19 19 21 19 17 16 15 15 16 17 19 20 21 22 25 28 30 32 33 33 35 35
35 38 37 28 20 25 27 37 36 42 44 37 30 29 24 30 30 25 25 23 20 19 21 21 21 20 19 19 19 18 17 14 13 13 15 17 18 20 20 21 23 26 29 31 32 32 33 35 37
33 37 32 27 26 30 31 46 38 37 40 39 39 38 31 32 33 29 25 22 20 19 19 17 17 17 17 17 17 15 13 12 13 13 15 17 18 19 20 23 25 28 31 32 32 33 34 35 37
35 32 28 27 18 13 7 17 34 34 36 41 37 43 37 37 38 33 29 24 20 21 20 17 17 17 16 16 15 13 12 12 12 12 15 16 17 19 22 25 27 29 31 32 33 34 35 35 37
29 20 21 22 21 22 32 20 35 34 36 38 39 43 39 39 43 39 32 27 24 22 22 19 17 16 15 16 15 13 11 9 9 11 14 16 19 22 25 26 28 31 32 34 35 36 37 38 38
25 20 22 23 17 13 45 21 32 39 40 33 34 42 39 39 42 40 35 32 30 24 24 20 18 19 19 16 14 12 9 8 9 11 14 17 21 24 26 29 31 33 35 36 37 38 38 38 39
29 23 5 6 9 13 14 23 46 15 32 20 27 31 40 42 43 39 37 34 31 26 25 22 21 20 19 17 14 12 10 9 11 13 16 20 23 26 30 32 34 36 37 39 40 39 39 38 39
32 33 9 7 4 7 16 16 29 32 40 24 23 36 37 44 48 40 38 34 32 27 27 24 23 22 19 17 15 13 11 13 15 17 20 23 27 30 33 36 38 39 40 41 41 40 39 39 41
24 32 44 10 18 6 11 27 40 38 29 32 29 33 34 43 45 40 37 36 32 27 28 26 25 23 20 18 16 14 14 16 18 21 24 26 29 32 35 38 39 40 42 43 42 41 41 41 44
36 25 15 20 6 10 9 15 24 24 38 33 30 34 30 31 42 39 37 35 30 27 29 28 26 23 20 18 17 17 17 18 21 24 27 29 32 35 37 39 40 42 43 43 42 42 43 45 46
31 42 23 23 21 5 4 12 29 32 32 32 26 30 25 25 30 34 34 31 28 29 31 28 26 24 21 19 19 19 19 21 24 27 30 31 34 37 39 40 42 43 43 42 43 44 46 47 48
30 45 43 19 20 15 5 16 28 31 27 33 25 24 25 25 22 24 26 26 27 30 30 28 27 24 22 21 20 20 22 24 27 30 32 33 36 39 40 41 43 43 43 42 44 46 47 49 50
Wind_Direction
258 271 282 295 300 252 236 227 242 218 229 209 222 240 238 245 259 170 159 311 6 18 23 23 18 18 22 23 21 19 18 12 5 360 354 348 338 317 290 275 276 281 281 274 274 275 278 280 287
253 259 274 282 265 260 228 69 357 252 241 209 225 249 202 214 211 236 294 296 320 329 4 18 18 22 24 25 25 22 18 21 16 6 358 353 348 339 326 311 302 291 284 286 289 287 286 286 288
248 253 258 256 247 243 202 206 348 220 219 213 229 244 220 218 216 223 247 268 267 295 336 12 10 19 23 22 22 19 14 15 13 13 11 6 348 344 334 323 306 290 290 290 292 293 291 289 288
243 246 251 245 241 232 226 296 329 287 248 233 231 239 226 210 222 222 223 244 256 274 298 344 358 9 20 18 18 14 12 9 5 3 3 8 3 2 338 318 302 299 297 296 295 294 292 294 296
242 239 240 243 244 224 223 267 276 276 279 258 243 230 228 224 233 229 231 245 254 259 273 305 341 1 9 8 12 7 1 0 358 360 353 355 351 353 347 335 317 302 298 294 297 297 299 301 302
234 233 235 236 242 233 218 256 235 274 281 268 237 242 232 235 228 229 233 238 247 253 262 281 328 347 349 352 356 355 353 352 353 355 349 349 339 336 332 323 320 316 315 309 308 306 304 302 299
228 233 236 242 244 240 211 229 227 267 271 267 237 242 237 236 240 242 234 241 243 245 257 272 305 322 328 334 337 340 347 348 347 350 345 341 334 330 322 326 325 314 307 302 298 299 299 296 295
228 231 238 240 239 240 213 232 238 265 267 268 251 236 228 235 236 243 245 245 244 246 254 262 279 296 312 316 320 330 339 340 340 342 339 338 340 337 325 321 316 310 303 303 300 305 305 303 302
229 229 235 235 235 234 217 218 214 269 273 260 245 242 223 225 240 239 247 246 244 246 250 255 269 288 301 309 309 320 328 327 329 333 336 333 336 333 331 332 328 320 316 314 313 313 310 309 307
225 231 235 240 241 239 231 236 241 261 261 265 260 240 233 240 247 237 246 246 249 249 249 248 260 273 290 295 300 311 315 311 324 327 328 327 329 325 325 318 316 315 313 314 315 315 315 314 313
228 235 237 242 244 241 237 238 231 245 249 263 266 236 222 218 238 242 243 248 247 245 249 249 252 264 281 287 299 305 304 306 315 316 316 316 311 307 307 306 311 313 317 319 318 316 315 313 311
237 237 237 242 242 243 240 235 237 239 245 264 266 253 218 223 234 243 251 255 254 249 245 246 250 261 273 285 293 300 300 298 303 303 302 305 299 297 299 306 308 311 313 313 313 313 311 308 306
238 241 241 242 241 241 238 232 239 239 242 249 256 254 246 232 232 239 242 247 254 253 255 249 251 260 272 280 285 289 289 285 291 296 295 298 293 296 302 303 306 307 312 315 311 308 308 307 308
235 239 238 236 240 242 242 237 240 233 240 251 256 249 252 250 241 246 247 249 255 260 256 253 255 264 272 281 283 283 283 283 287 291 288 291 293 294 297 305 304 310 309 309 309 310 309 310 312
240 242 238 236 231 239 242 245 231 234 237 248 256 256 253 246 244 245 249 250 253 254 252 254 255 258 267 274 275 278 281 288 296 304 301 296 295 296 303 302 304 306 307 310 311 313 313 313 312
244 245 249 237 239 242 238 250 238 232 239 244 254 256 256 243 239 242 251 260 258 254 251 248 252 255 259 262 266 271 280 286 290 293 288 286 286 294 296 299 303 307 310 312 315 313 310 310 310
248 251 243 252 235 238 233 248 251 240 242 248 253 256 236 240 234 236 247 256 258 255 250 244 247 249 251 257 263 269 275 279 285 283 282 283 291 295 296 300 306 309 311 315 313 309 308 308 307
238 243 247 250 249 248 244 248 247 245 242 249 252 244 237 244 243 240 253 255 259 253 249 245 243 244 248 255 256 259 267 275 275 276 279 283 290 293 298 303 306 309 312 309 306 307 307 307 307
236 248 250 248 251 253 252 261 249 245 245 245 251 230 233 236 235 249 252 251 256 253 244 240 242 242 246 247 252 259 264 262 263 268 276 285 290 293 300 303 306 306 305 305 306 306 307 307 308
240 243 248 257 256 248 263 258 252 243 238 242 239 229 226 230 238 241 245 248 254 252 244 237 233 229 234 244 249 248 249 251 259 271 279 285 292 295 296 300 304 305 307 309 310 309 309 308 307
241 244 253 262 267 248 262 266 257 247 242 240 241 236 232 231 230 235 242 249 256 248 242 227 223 226 230 232 236 238 240 249 262 270 280 285 289 291 297 302 305 309 311 312 312 311 311 310 309
248 245 251 261 273 268 304 278 269 260 254 236 236 229 217 228 237 237 241 248 258 243 237 225 225 227 227 227 225 228 237 254 266 279 283 286 290 296 300 305 308 310 313 315 316 315 313 310 308
259 241 252 257 262 281 267 269 267 261 254 238 231 225 219 228 232 240 240 245 250 243 235 227 227 228 223 221 225 232 243 255 275 285 288 290 293 298 304 307 310 315 319 320 319 317 315 312 308
240 243 255 258 261 251 249 229 268 249 250 248 236 233 226 228 231 228 234 242 246 244 234 225 221 220 220 223 227 231 236 261 288 296 293 294 300 305 308 311 316 319 320 321 319 316 312 309 308
229 233 242 218 203 239 243 221 241 254 242 257 230 238 231 226 225 224 233 237 238 243 234 223 221 219 220 223 225 229 247 277 300 306 304 305 308 310 314 316 318 319 320 320 318 315 312 311 310
220 216 204 201 217 254 234 236 242 260 238 249 240 238 234 233 231 228 231 236 239 243 233 221 221 218 221 223 226 241 266 290 304 310 310 308 311 312 314 316 318 319 319 319 317 314 312 311 311
225 212 221 265 293 280 221 248 253 246 240 239 247 214 222 228 217 218 228 235 239 240 228 219 218 217 220 227 237 254 274 292 303 307 308 307 309 310 312 315 316 317 318 317 316 313 313 313 313
225 227 201 211 231 239 247 232 235 250 238 230 217 208 216 216 215 220 227 233 231 226 220 215 215 218 224 233 245 261 278 291 300 303 305 306 308 310 312 313 315 316 317 316 314 314 314 314 314
220 224 214 212 216 231 246 247 237 236 209 215 210 205 205 200 213 221 224 224 227 218 215 215 219 223 230 241 253 267 279 290 297 300 304 305 307 308 310 313 315 316 316 315 314 314 315 315 314
236 217 217 207 204 241 285 287 220 217 217 214 206 202 204 203 212 213 219 222 216 210 213 215 220 225 233 245 258 270 279 288 295 300 302 304 305 309 311 313 314 315 315 314 315 315 314 314 314